Probability
0 0 0 0 0 0 0 0 0 0 0 0 0 0 0 0 0 0 0 0 0 0 0 0 0 0 0 0 0 0 0 0 0 0 0 0 0 0 0 0 0 0 0
0 0 0 0 0 0 0 0 0 0 0 0 0 0 0 0 0 0 0 0 0 0 0 0 0 0 0 0 0 0 0 0 0 0 0 0 0 0 0 0 0 0 0
0 0 0 0 0 0 0 0 0 0 0 0 0 0 0 0 0 0 0 0 0 0 0 0 0 0 0 0 0 0 0 0 0 0 0 0 0 0 0 0 0 0 0
0 0 0 0 0 0 0 0 0 0 0 0 0 0 0 0 0 0 0 0 0 0 0 0 0 0 0 0 0 0 0 0 0 0 0 0 0 0 0 0 0 0 0
0 0 0 0 0 0 0 0 0 0 0 0 0 0 0 0 0 0 0 0 0 0 0 0 0 0 0 0 0 0 0 0 0 0 0 0 0 0 0 0 0 0 0
0 0 0 0 0 0 0 0 0 0 0 0 0 0 0 0 0 0 0 0 0 0 0 0 0 0 0 0 0 0 0 0 0 0 0 0 0 0 0 0 0 0 0
0 0 0 0 0 0 0 0 0 0 0 0 0 0 0 0 0 0 0 0 0 0 0 0 0 0 0 0 0 0 0 0 0 0 0 0 0 0 0 0 0 0 0
0 0 0 0 0 0 0 0 0 0 0 0 0 0 0 0 0 0 0 0 0 0 0 0 0 0 0 0 0 0 0 0 0 0 0 0 0 0 0 0 0 0 0
0 0 0 0 0 0 0 0 0 0 0 0 0 0 0 0 0 0 0 0 0 0 0 0 0 0 0 0 0 0 0 0 0 0 0 0 0 0 0 0 0 0 0
0 0 0 0 0 0 0 0 0 0 0 0 0 0 0 0 0 0 0 0 0 0 0 0 0 0 0 0 0 0 0 0 0 0 0 0 0 0 0 0 0 0 0
0 0 0 0 0 0 0 0 0 0 0 0 0 0 0 0 0 0 0 0 0 0 0 0 0 0 0 0 0 0 0 0 0 0 0 0 0 0 0 0 0 0 0
0 0 0 0 0 0 0 0 0 0 0 0 0 0 0 0 0 0 0 0 0 0 0 0 0 0 0 0 0 0 0 0 0 0 0 0 0 0 0 0 0 0 0
0 0 0 0 0 0 0 0 0 0 0 0 0 0 0 0 0 0 0 0 0 0 0 0 0 0 0 0 0 0 0 0 0 0 0 0 0 0 0 0 0 0 0
0 0 0 0 0 0 0 0 0 0 0 0 0 0 0 0 0 0 0 0 0 0 0 0 0 0 0 0 0 0 0 0 0 0 0 0 0 0 0 0 0 0 0
0 0 0 0 0 0 0 0 0 0 0 0 0 0 0 0 0 0 0 0 0 0 0 0 0 0 0 0 0 0 0 0 0 0 0 0 0 0 0 0 0 0 0
0 0 0 0 0 0 0 0 0 0 0 0 0 0 0 0 0 0 0 0 0 0 0 0 0 0 0 0 0 0 0 0 0 0 0 0 0 0 0 0 0 0 0
0 0 0 0 0 0 0 0 0 0 0 0 0 0 0 0 0 0 0 0 0 0 0 0 0 0 0 0 0 0 0 0 0 0 0 0 0 0 0 0 0 0 0
0 0 0 0 0 0 0 0 0 0 0 0 0 0 0 0 0 0 0 0 0 0 0 0 0 0 0 0 0 0 0 0 0 0 0 0 0 0 0 0 0 0 0
0 0 0 0 0 0 0 0 0 0 0 0 0 0 0 0 0 0 0 0 0 0 0 0 0 0 0 0 0 0 0 0 0 0 0 0 0 0 0 0 0 0 0
0 0 0 0 0 0 0 0 0 0 0 0 0 0 0 0 0 0 0 0 0 0 0 0 0 0 0 0 0 0 0 0 0 0 0 0 0 0 0 0 0 0 0
0 0 0 0 0 0 0 0 0 0 0 0 0 0 0 0 0 0 0 0 0 0 0 0 0 0 0 0 0 0 0 0 0 0 0 0 0 0 0 0 0 0 0
0 0 0 0 0 0 0 0 0 0 0 0 0 0 0 0 0 0 0 0 0 0 0 0 0 0 0 0 0 0 0 0 0 0 0 0 0 0 0 0 0 0 0
0 0 0 0 0 0 0 0 0 0 0 0 0 0 0 0 0 0 0 0 0 0 0 0 0 0 0 0 0 0 0 0 0 0 0 0 0 0 0 0 0 0 0
0 0 0 0 0 0 0 0 0 0 0 0 0 0 0 0 0 0 0 0 0 0 0 0 0 0 0 0 0 0 0 0 0 0 0 0 0 0 0 0 0 0 0
0 0 0 0 0 0 0 0 0 0 0 0 0 0 0 0 0 0 0 0 0 0 0 0 0 0 0 0 0 0 0 0 0 0 0 0 0 0 0 0 0 0 0
0 0 0 0 0 0 0 0 0 0 0 0 0 0 0 0 0 0 0 0 0 0 0 0 0 0 0 0 0 0 0 0 0 0 0 0 0 0 0 0 0 0 0
Wind_Speed
2 1 1 1 1 2 3 4 4 4 5 5 6 6 7 7 7 7 7 7 8 8 8 8 9 8 7 6 6 7 8 8 16 14 6 6 8 9 10 9 9 10 10
1 1 1 2 2 3 4 4 4 5 5 6 7 7 8 8 7 7 8 8 8 9 8 8 9 9 9 8 7 8 8 8 12 19 11 6 8 8 9 10 10 10 8
1 1 2 3 3 4 4 5 5 6 6 7 7 8 8 8 8 8 8 9 9 9 9 9 10 10 12 10 10 10 9 10 9 13 15 8 6 7 8 10 11 9 11
0 2 3 3 3 4 5 5 6 6 7 8 8 8 9 9 9 9 9 9 9 10 10 11 11 12 13 13 12 12 11 11 10 12 14 11 8 7 7 8 10 7 9
1 2 3 4 4 4 5 6 7 7 8 8 9 9 9 8 8 9 8 9 10 10 10 11 12 17 22 19 15 11 10 11 11 12 13 12 10 7 8 7 10 8 8
2 3 4 4 4 5 6 6 7 8 8 9 9 9 9 9 17 23 18 10 9 9 10 10 12 16 20 25 27 26 21 14 11 11 12 13 12 10 8 8 10 11 10
3 4 4 5 5 6 6 7 8 8 8 9 9 9 9 11 21 25 24 15 10 9 10 10 12 13 19 12 18 25 23 26 25 16 14 14 14 11 10 12 11 12 12
4 5 5 5 6 6 7 8 8 8 8 8 9 9 9 12 23 25 25 15 10 10 11 12 13 12 13 16 13 12 13 14 17 14 12 13 13 12 12 13 13 13 11
5 5 5 5 6 7 8 8 8 8 8 8 8 9 10 12 21 25 25 10 9 11 11 12 14 12 20 27 18 14 14 12 17 24 25 23 25 26 20 11 9 10 10
5 5 5 5 6 8 8 9 8 8 9 9 9 9 10 10 19 24 25 9 9 10 9 10 18 20 25 27 17 13 15 13 12 13 16 18 16 17 22 13 8 9 9
5 5 6 6 7 8 8 7 8 8 9 9 10 9 9 12 18 23 24 12 9 10 10 9 9 23 27 28 25 15 18 19 12 11 10 10 9 8 8 8 7 8 9
5 6 7 7 7 7 8 8 8 8 9 9 9 10 7 9 15 19 25 24 22 14 11 9 12 25 28 29 22 21 27 23 8 7 8 8 7 7 6 6 7 7 7
6 7 7 8 7 7 8 8 8 7 7 8 8 10 9 7 10 22 25 26 26 17 12 21 26 29 27 19 21 25 20 9 7 8 8 8 6 6 5 4 5 6 6
7 7 7 7 8 7 6 6 6 6 7 8 9 10 11 9 7 7 9 12 17 16 13 18 25 25 20 19 17 13 7 7 8 8 8 6 5 4 5 4 4 4 5
7 7 7 7 8 8 7 6 8 7 9 12 9 9 11 12 13 23 19 12 11 12 16 11 9 8 8 7 7 6 6 6 7 6 6 6 5 5 5 4 4 4 5
7 7 6 6 6 7 8 9 12 15 21 23 23 21 16 21 28 28 28 28 28 27 19 10 9 8 8 7 7 7 6 6 6 6 6 6 6 6 5 4 4 4 5
7 7 6 6 7 7 7 9 11 13 17 20 23 25 24 27 28 27 27 27 26 24 12 8 9 8 8 7 7 7 7 7 6 6 6 6 6 5 4 4 4 4 5
7 9 9 7 7 7 7 8 9 11 12 10 13 21 24 25 25 25 26 22 13 11 7 9 9 8 8 8 7 7 7 7 6 6 6 5 5 5 5 4 4 5 5
8 7 7 7 7 8 8 8 9 11 11 12 10 11 19 21 23 22 21 10 9 9 9 8 8 8 8 8 8 7 7 7 7 6 5 6 5 5 5 5 4 8 7
7 14 14 9 8 8 8 9 10 10 11 11 11 10 9 11 9 10 8 7 8 9 9 9 8 8 8 8 8 7 7 7 7 6 6 5 5 5 5 6 5 5 5
7 10 17 12 8 9 9 10 10 10 11 11 10 12 21 12 10 10 9 8 8 9 9 9 8 8 8 7 7 7 8 7 6 6 5 5 4 5 5 5 5 5 5
7 8 8 9 9 9 10 10 10 10 11 12 11 11 20 12 9 9 9 9 8 8 8 9 8 8 7 7 8 8 7 7 6 6 5 5 5 5 5 5 5 5 5
7 9 10 10 9 14 14 9 9 10 11 11 11 10 10 9 9 9 9 9 8 8 8 8 9 8 7 7 7 7 7 7 6 5 5 5 5 5 5 6 7 7 7
8 10 11 11 11 10 11 11 10 10 10 10 10 10 9 9 9 10 10 9 9 9 9 8 9 11 12 10 7 6 6 7 7 6 7 7 7 6 6 6 7 8 7
9 10 11 11 11 11 11 11 10 10 10 11 10 10 9 9 10 10 9 9 10 10 11 10 9 9 11 12 10 9 13 16 14 9 6 6 7 7 8 8 7 8 8
9 10 11 10 10 10 10 10 10 10 10 10 10 9 10 10 10 10 9 9 9 10 10 9 10 11 13 11 12 15 18 17 16 16 9 6 8 8 8 8 10 10 10
Wind_Direction
96 74 6 324 323 313 299 293 293 293 295 293 291 290 288 285 284 283 281 283 283 282 282 280 276 275 272 268 265 263 261 261 275 281 262 255 255 262 273 272 272 269 270
100 20 316 309 304 298 294 296 302 302 300 295 293 290 288 288 287 286 287 288 286 287 288 290 290 293 287 283 278 273 271 266 272 283 283 267 258 260 264 266 273 271 264
95 321 308 306 305 301 301 306 308 302 296 293 292 290 289 287 285 281 279 279 277 278 281 283 285 287 285 282 278 276 274 275 273 279 284 278 268 265 269 270 269 270 269
217 284 292 294 297 300 302 301 297 293 292 290 287 284 282 281 280 279 277 274 273 272 271 272 274 274 275 275 274 271 270 270 268 271 278 279 273 261 261 268 271 261 265
264 278 275 280 289 292 292 292 290 288 286 283 282 281 279 280 279 278 274 269 268 269 270 269 271 277 278 280 279 272 265 265 267 268 272 276 274 267 264 263 269 270 262
263 271 274 279 282 283 285 286 287 285 283 281 280 279 280 283 293 297 297 286 276 276 280 278 279 284 284 285 286 287 284 279 278 274 277 276 277 272 267 264 268 273 274
265 269 272 273 277 279 282 285 284 283 282 282 281 280 281 285 296 300 300 298 286 283 283 284 286 284 290 282 283 285 285 283 281 277 276 275 277 274 270 270 266 266 269
268 271 272 273 276 278 280 280 280 279 281 282 284 284 285 290 300 302 303 299 286 282 280 280 281 280 279 283 276 271 267 268 270 271 263 264 266 265 258 262 267 268 265
273 274 276 278 279 281 281 280 281 283 285 284 284 286 287 292 300 303 303 292 286 283 281 281 285 284 287 292 290 282 279 274 276 274 270 269 268 270 267 262 256 262 268
276 278 282 282 281 281 279 280 282 283 283 284 284 284 286 290 300 304 304 294 289 287 283 279 286 289 292 294 290 284 283 282 275 274 273 274 274 273 275 267 258 263 268
278 282 283 280 278 278 279 280 282 283 285 285 287 286 286 291 301 304 304 300 291 291 291 290 284 293 295 295 294 287 284 287 279 275 274 268 261 254 252 247 237 244 257
284 283 281 279 280 284 282 282 281 284 288 289 291 291 284 288 295 299 301 302 302 298 295 291 288 295 296 297 297 291 293 296 289 283 279 275 268 259 249 241 236 235 240
283 281 280 281 279 279 280 284 285 284 284 288 289 291 292 285 288 297 301 302 301 299 291 295 298 300 301 299 294 295 297 293 285 283 280 275 267 262 255 245 237 239 243
282 282 282 283 283 281 280 279 282 283 284 286 289 292 293 291 285 285 283 292 295 295 293 292 296 296 295 292 293 294 285 275 282 280 279 277 273 267 260 250 248 241 251
280 279 281 280 282 284 280 275 282 273 280 291 290 288 294 296 293 300 303 300 296 292 300 295 290 290 286 284 284 283 281 282 284 277 279 280 276 268 260 246 242 241 247
282 281 280 281 282 282 287 289 282 283 293 294 294 295 294 295 302 306 307 306 307 307 307 298 296 294 293 294 294 293 289 285 282 280 278 274 273 270 263 249 241 243 248
281 283 283 281 283 284 285 290 296 295 291 292 294 297 299 301 305 307 308 309 309 311 304 294 292 291 290 290 289 288 288 287 284 280 277 274 271 267 262 256 248 247 246
285 287 289 283 281 282 283 284 288 294 299 293 291 296 301 303 306 309 311 313 307 304 288 289 290 289 289 288 287 285 286 287 284 279 275 272 268 266 262 256 249 248 249
287 284 283 280 279 281 282 284 285 286 289 293 295 297 301 304 305 305 309 301 297 297 293 290 289 288 288 286 285 284 282 282 280 277 273 271 266 261 261 257 253 259 257
281 286 292 288 283 284 284 285 285 286 288 290 294 297 301 300 296 299 297 290 292 293 291 290 290 288 289 287 285 282 281 279 278 272 269 265 262 261 259 256 253 255 252
280 285 291 291 283 283 284 283 283 284 288 290 290 293 300 301 299 299 297 293 291 292 292 291 289 288 287 286 283 280 279 279 276 273 269 262 260 261 259 255 252 250 250
280 280 280 281 283 283 284 282 282 285 287 289 291 294 300 298 292 291 291 291 289 288 288 288 288 285 283 283 283 282 280 277 273 270 267 263 261 260 259 255 251 249 247
278 281 283 283 283 286 289 283 281 283 285 287 291 293 293 290 291 292 292 292 292 291 289 286 287 286 282 278 275 274 276 276 272 268 266 266 263 260 258 254 252 249 246
277 280 283 285 284 282 284 284 283 285 287 289 290 291 291 291 292 292 293 292 292 291 289 287 286 285 284 283 280 273 269 270 266 260 258 260 261 260 258 256 254 250 248
285 286 286 287 287 286 287 287 287 287 289 291 292 293 293 293 293 293 292 292 292 292 291 291 288 287 285 283 281 277 281 283 281 272 254 254 257 255 256 256 256 254 250
287 287 289 289 288 288 289 291 291 291 291 292 293 293 292 292 292 292 292 291 292 293 293 292 287 285 285 285 281 283 287 286 284 279 269 254 252 254 253 255 254 254 254